Regional Weather Roundup
Issued by NWS Kansas City/Pleasant Hill, MO

Home | Current Version | Previous Version | Text Only | Print | Product List | Glossary On
Versions: 1 2 3 4 5 6 7 8 9 10 11 12 13 14 15 16 17 18 19 20 21 22 23 24 25 26 27
000
ASUS43 KEAX 272210
RWREAX

WEATHER ROUNDUP FOR EASTERN KANSAS AND NORTHWEST MISSOURI
NATIONAL WEATHER SERVICE KANSAS CITY/PLEASANT HILL MO
500 PM CDT SAT AUG 27 2016

KSZ040-057-103>105-MOZ028-029-037-043-272300-
...KANSAS CITY METROPOLITAN AREA...

CITY           SKY/WX    TMP DP  RH WIND       PRES   REMARKS
K.C. INTL      MOSUNNY   86  70  58 S3        29.99F HX  90
K.C. DOWNTOWN  LGT RAIN  88  72  58 SW5       29.97F HX  94
LEES SUMMIT    MOSUNNY   87  71  58 SW12      30.00F HX  93
OLATHE - IXD   PTSUNNY   85  73  67 SE9       30.00F HX  91
OLATHE - OJC   MOSUNNY   85  72  65 S10       30.00F HX  91
LAWRENCE       PTSUNNY   86  73  65 CALM      29.98F HX  93

$$

MOZ001>008-011>017-020>025-030>033-038>040-044>046-053-054-272300-
...NORTHERN AND CENTRAL MISSOURI...

CITY           SKY/WX    TMP DP  RH WIND       PRES   REMARKS
ST. JOSEPH     SUNNY     85  70  60 SW6       29.99S
MOSBY          PTCLDY    86  70  58 CALM      29.99S HX  90
WHITEMAN AFB   MOSUNNY   88  74  62 S6        30.00S HX  96
CLINTON        SUNNY     86  73  66 CALM      30.01S HX  93
SEDALIA        MOSUNNY   87  70  56 SW6       30.02F HX  92
WARSAW         NOT AVBL
CHILLICOTHE    NOT AVBL
KIRKSVILLE     MOSUNNY   86  69  56 SW7       30.02S HX  90

$$

MOZ041-047>049-056>058-063>065-088>090-097-272300-
...EASTERN AND SOUTHERN MISSOURI...

CITY           SKY/WX    TMP DP  RH WIND       PRES   REMARKS
ST. LOUIS INTL PTSUNNY   90  70  51 S6        30.02S HX  95
SPIRIT OF STL  MOSUNNY   90  73  57 SW5       29.99F HX  98
COLUMBIA       CLOUDY    85  71  63 S6        30.03S HX  90
JEFFERSON CITY CLOUDY    87  71  58 E5        30.00S HX  93
ROLLA          MOSUNNY   86  71  60 SE5       30.02F HX  91
OSAGE BEACH    MOSUNNY   83  71  67 VRB5      30.03F
SPRINGFIELD    CLOUDY    88  66  48 W7        30.02F HX  90
BRANSON        PTSUNNY   82  72  69 S10       30.05F
JOPLIN         SUNNY     88  71  57 SE7       30.00F HX  94
WEST PLAINS    MOSUNNY   85  68  56 S3        30.05F

$$

IAZ060-094-KSZ022-034>040-054-083-096-NEZ052-066-093-272300-
...KANSAS...SOUTHEAST NEBRASKA AND IOWA...

CITY           SKY/WX    TMP DP  RH WIND       PRES   REMARKS
TOPEKA         MOSUNNY  N/A N/A N/A MISG      29.98F
MANHATTAN      MOSUNNY   84  71  65 E5        29.97F
EMPORIA        MOSUNNY   84  72  67 CALM      29.98F
CHANUTE        LGT RAIN  85  72  65 SW12      29.98S HX  91
WICHITA        MOSUNNY   89  68  49 SE6       29.96F HX  93
OMAHA          MOSUNNY   83  63  50 SW6       29.98F
LINCOLN        SUNNY     85  64  49 SW5       29.99F
FALLS CITY     MOSUNNY   84  68  58 S7        29.98F
LAMONI         MOSUNNY   82  69  64 W6        30.01F
DES MOINES     PTSUNNY   81  69  67 S3        29.99F

$$





USA.gov is the U.S. government's official web portal to all federal, state and local government web resources and services.